Total_Precipitation_Accumulation
0.55 0.52 0.48 0.51 0.55 0.60 0.65 0.74 0.80 0.96 1.06 1.12 1.26 1.47 1.62 1.79 1.92 1.99 1.85 1.70 1.67 1.82 1.97 1.89 1.97 1.99 1.85 1.86 1.92 1.95 1.92 1.74 1.61 1.66 1.55 1.30 1.11 1.17 1.14 1.13 1.18 1.19 1.26
0.39 0.36 0.32 0.35 0.37 0.38 0.43 0.53 0.65 0.72 0.86 1.03 1.29 1.50 1.79 1.85 1.90 2.02 2.06 1.96 1.90 2.05 2.10 2.17 2.25 2.28 2.28 2.22 2.11 2.22 2.37 2.12 1.89 1.99 2.27 1.89 1.55 1.20 0.97 1.07 1.13 1.18 1.40
0.24 0.20 0.20 0.26 0.31 0.30 0.33 0.42 0.55 0.70 0.94 1.18 1.50 1.78 2.07 2.18 2.22 2.15 2.18 2.20 2.22 2.28 2.31 2.37 2.42 2.43 2.28 2.27 2.38 2.51 2.86 2.67 2.31 2.10 2.36 2.21 1.90 1.62 1.18 1.07 1.12 1.18 1.34
0.21 0.19 0.19 0.22 0.25 0.28 0.35 0.48 0.68 0.91 1.18 1.51 1.89 2.16 2.41 2.54 2.37 2.33 2.32 2.28 2.21 2.24 2.36 2.36 2.34 2.30 2.24 2.31 2.38 2.43 2.85 3.07 2.78 2.43 2.02 1.80 1.76 1.87 1.62 1.21 1.13 1.19 1.19
0.27 0.24 0.25 0.29 0.35 0.43 0.52 0.70 0.98 1.29 1.56 1.81 2.01 2.26 2.40 2.40 2.35 2.31 2.31 2.21 2.15 2.11 2.13 2.13 2.23 2.24 2.28 2.34 2.50 2.64 2.91 2.94 2.94 2.76 2.54 2.30 1.97 1.63 1.73 1.69 1.39 1.30 1.18
0.33 0.34 0.36 0.45 0.54 0.62 0.78 0.97 1.16 1.47 1.66 1.80 1.91 2.07 2.22 2.26 2.25 2.25 2.29 2.27 2.22 2.09 2.00 1.93 2.01 2.15 2.29 2.34 2.44 2.60 2.86 2.98 3.06 2.99 2.70 2.59 2.43 2.15 2.04 1.80 1.64 1.59 1.34
0.43 0.45 0.57 0.71 0.78 0.83 0.95 1.13 1.21 1.41 1.51 1.57 1.69 1.82 1.88 1.92 1.94 1.93 1.93 1.86 1.81 1.80 1.85 1.89 1.97 2.10 2.19 2.26 2.38 2.52 2.59 2.71 2.96 2.98 2.81 2.59 2.39 2.39 2.27 2.16 1.85 1.64 1.41
0.61 0.71 0.86 0.95 1.04 1.07 1.04 1.09 1.24 1.27 1.27 1.33 1.33 1.44 1.54 1.60 1.64 1.60 1.59 1.63 1.66 1.68 1.64 1.68 1.75 1.97 2.15 2.23 2.32 2.33 2.32 2.38 2.57 2.58 2.67 2.63 2.37 2.34 2.24 2.24 2.34 2.06 1.79
0.86 1.10 1.30 1.39 1.48 1.42 1.25 1.12 1.12 1.10 1.09 1.19 1.25 1.29 1.35 1.39 1.41 1.40 1.33 1.44 1.46 1.47 1.42 1.47 1.50 1.62 1.83 2.07 2.22 2.18 2.10 2.07 2.23 2.30 2.41 2.55 2.59 2.49 2.39 2.36 2.46 2.45 2.19
1.30 1.59 1.85 2.02 2.01 1.79 1.53 1.30 1.11 1.02 0.99 1.06 1.15 1.21 1.23 1.24 1.21 1.23 1.15 1.20 1.29 1.29 1.23 1.24 1.34 1.50 1.62 1.79 2.00 2.09 2.04 2.04 2.11 2.22 2.35 2.50 2.63 2.66 2.44 2.40 2.40 2.30 2.27
1.74 1.94 2.12 2.24 2.04 1.84 1.55 1.28 1.11 1.09 1.11 1.14 1.17 1.19 1.15 1.12 1.09 1.04 1.00 1.05 1.13 1.11 1.11 1.26 1.33 1.41 1.50 1.69 1.93 2.11 2.12 2.04 2.05 2.03 2.11 2.29 2.39 2.62 2.59 2.50 2.40 2.29 2.18
1.50 1.62 1.72 1.73 1.78 1.72 1.52 1.31 1.19 1.18 1.22 1.24 1.27 1.23 1.16 1.09 1.07 1.02 0.93 0.92 0.88 0.86 0.97 1.11 1.17 1.22 1.25 1.44 1.72 1.93 1.98 1.96 1.86 1.81 1.91 2.12 2.30 2.52 2.65 2.61 2.46 2.38 2.26
1.29 1.28 1.32 1.42 1.52 1.54 1.43 1.38 1.33 1.34 1.35 1.31 1.20 1.13 1.07 0.98 0.94 0.84 0.77 0.83 0.82 0.88 0.99 1.07 1.12 1.16 1.21 1.25 1.37 1.56 1.70 1.70 1.63 1.64 1.67 1.70 1.89 2.17 2.37 2.39 2.42 2.47 2.46
1.01 1.00 1.10 1.20 1.29 1.30 1.31 1.28 1.25 1.29 1.38 1.44 1.34 1.23 1.11 1.01 0.97 0.87 0.77 0.75 0.77 0.85 0.94 0.98 1.06 1.15 1.19 1.20 1.23 1.25 1.32 1.37 1.45 1.50 1.50 1.54 1.58 1.80 1.98 2.07 2.26 2.52 2.57
0.69 0.74 0.81 0.83 0.80 0.79 0.86 0.92 1.00 1.14 1.29 1.44 1.43 1.30 1.13 0.99 0.93 0.89 0.80 0.78 0.77 0.79 0.86 0.90 0.91 0.97 1.08 1.17 1.21 1.10 1.08 1.18 1.29 1.29 1.23 1.25 1.37 1.53 1.65 1.67 2.02 2.39 2.60
0.45 0.44 0.47 0.47 0.46 0.44 0.45 0.47 0.58 0.74 0.99 1.26 1.26 1.07 0.91 0.77 0.71 0.73 0.76 0.76 0.73 0.78 0.81 0.78 0.80 0.88 0.90 1.11 1.11 0.95 0.94 1.01 1.12 1.20 1.18 1.06 1.06 1.14 1.27 1.34 1.49 1.75 2.00
0.35 0.34 0.33 0.33 0.33 0.33 0.33 0.36 0.44 0.56 0.74 0.87 0.87 0.79 0.70 0.66 0.71 0.75 0.70 0.70 0.72 0.73 0.74 0.72 0.71 0.74 0.86 0.94 0.82 0.83 0.85 0.92 1.00 1.08 1.15 1.07 0.94 1.06 1.14 1.26 1.34 1.31 1.36
0.26 0.26 0.25 0.25 0.30 0.31 0.36 0.41 0.47 0.53 0.57 0.59 0.62 0.59 0.58 0.59 0.64 0.68 0.66 0.72 0.76 0.73 0.72 0.75 0.72 0.71 0.80 0.82 0.70 0.77 0.79 0.81 0.88 1.01 1.12 1.17 1.10 1.12 1.24 1.24 1.26 1.19 1.14
0.18 0.17 0.17 0.18 0.20 0.20 0.22 0.24 0.28 0.30 0.32 0.31 0.33 0.36 0.38 0.40 0.42 0.44 0.51 0.62 0.68 0.70 0.74 0.79 0.79 0.72 0.72 0.79 0.71 0.74 0.76 0.78 0.82 0.86 0.96 1.06 1.03 1.23 1.35 1.29 1.43 1.41 1.27
0.18 0.17 0.15 0.15 0.17 0.17 0.18 0.17 0.18 0.20 0.21 0.21 0.22 0.25 0.27 0.27 0.28 0.33 0.38 0.45 0.46 0.52 0.62 0.63 0.64 0.68 0.68 0.89 0.82 0.82 0.76 0.79 0.89 0.94 0.92 1.10 1.13 1.29 1.27 1.17 1.39 1.42 1.35
0.17 0.18 0.18 0.17 0.18 0.20 0.19 0.18 0.19 0.20 0.22 0.25 0.27 0.27 0.26 0.27 0.29 0.32 0.35 0.37 0.40 0.46 0.51 0.54 0.57 0.65 0.76 0.95 0.95 0.98 0.89 0.91 1.04 1.03 0.95 0.90 1.08 0.99 1.07 1.08 1.07 1.32 1.37
0.15 0.16 0.17 0.20 0.21 0.19 0.18 0.18 0.19 0.20 0.23 0.26 0.28 0.29 0.28 0.29 0.30 0.32 0.36 0.39 0.41 0.42 0.46 0.49 0.53 0.58 0.67 0.77 0.85 0.88 0.90 0.96 1.01 1.06 0.96 0.95 1.06 0.89 0.86 0.86 0.97 1.20 1.32
0.15 0.15 0.16 0.16 0.17 0.17 0.17 0.17 0.19 0.21 0.23 0.26 0.27 0.30 0.30 0.29 0.27 0.30 0.35 0.38 0.41 0.42 0.46 0.50 0.57 0.62 0.66 0.70 0.72 0.72 0.77 0.81 0.84 0.87 0.97 0.98 0.95 0.86 0.78 0.80 0.90 1.00 1.10
0.14 0.13 0.15 0.16 0.18 0.18 0.18 0.20 0.20 0.20 0.21 0.26 0.30 0.31 0.31 0.30 0.30 0.31 0.35 0.38 0.41 0.44 0.48 0.54 0.58 0.62 0.66 0.69 0.69 0.74 0.79 0.77 0.75 0.75 0.76 0.78 0.81 0.81 0.76 0.77 0.83 0.92 1.05
0.16 0.18 0.19 0.18 0.19 0.20 0.22 0.26 0.27 0.24 0.22 0.24 0.27 0.28 0.29 0.31 0.32 0.32 0.33 0.35 0.37 0.46 0.54 0.59 0.62 0.60 0.59 0.60 0.65 0.74 0.82 0.90 0.97 1.02 0.91 0.87 0.87 0.84 0.79 0.75 0.78 0.86 0.95
0.20 0.21 0.22 0.22 0.22 0.22 0.25 0.27 0.29 0.30 0.30 0.29 0.28 0.27 0.26 0.28 0.31 0.31 0.31 0.33 0.35 0.41 0.46 0.48 0.51 0.51 0.54 0.58 0.60 0.65 0.75 0.86 1.01 1.15 1.10 1.12 1.13 1.07 0.98 0.89 0.81 0.78 0.81